Starlink 31796

operational
NORAD ID: 59646 Int'l Des: 2024-082 Owner: SPXS Country: US Constellation: starlink
LEOCIRCULAR

About Starlink 31796

Description loading...

Live Position

Loading 3D Globe...

Upcoming Passes

Altitude History

Altitude vs Time

uPlot chart will show altitude changes over time

Two-Line Element Set

1 59646U 24082R 25304.62445263 .00000048 00000-0 11253-4 0 9990
2 59646 43.0014 148.6542 0000998 270.7619 89.3118 15.27577962 85231
Epoch: Oct 31, 2025 • Age: 13 hours

Current Status

Altitude 482.6 km
Velocity 7.63 km/s
Sub-Earth Point 18.42°N, 70.88°E
Launch Date May 3, 2024
Age 1.4 years
Type internet

Technical Details

Classification Payload
Mass 730.00 kg
Dry Mass 700.00 kg
Total Mass 730.00 kg
Length 0.30 m
Diameter 4.10 m
Span 29.00 m
Shape Box + pan
Manufacturer SPXS
Bus Type Starlink V2M
Phase Status In Orbit
Owner/State SPXS/US

Large Constellations

Loading constellations...